| time (UTC) | temp F | wind direction | speed MPH | gust MPH | rain 1hr in | rain 24hr in | rain mn in | humidity % | barometer mb |
| 20260502130513 | 42 | 123 | 9.0 | 15.0 | 0.02 | 0.04 | 0.04 | 90 | 1013.9 |
| 20260502123514 | 42 | 67 | 8.0 | 17.0 | 0.01 | 0.02 | 0.02 | 85 | 1013.9 |
| 20260502123029 | 42 | 80 | 5.0 | 16.0 | 0.01 | 0.02 | 0.02 | 85 | 1013.8 |
| 20260502122511 | 42 | 72 | 8.0 | 16.0 | 0.01 | 0.02 | 0.02 | 85 | 1013.7 |
| 20260502122015 | 42 | 40 | 9.0 | 16.0 | 0.01 | 0.02 | 0.02 | 85 | 1013.6 |
| 20260502121533 | 42 | 75 | 8.0 | 15.0 | 0.02 | 0.02 | 0.02 | 85 | 1013.6 |
| 20260502121013 | 42 | 360 | 8.0 | 15.0 | 0.02 | 0.02 | 0.02 | 86 | 1013.4 |
| 20260502120515 | 42 | 87 | 8.0 | 15.0 | 0.02 | 0.02 | 0.02 | 87 | 1013.5 |
| 20260502115513 | 42 | 69 | 7.0 | 14.0 | 0.02 | 0.02 | 0.02 | 86 | 1013.6 |
| 20260502115016 | 42 | 79 | 6.0 | 13.0 | 0.02 | 0.02 | 0.02 | 86 | 1013.5 |
| 20260502114529 | 42 | 84 | 7.0 | 13.0 | 0.02 | 0.02 | 0.02 | 85 | 1013.6 |
| 20260502114012 | 42 | 78 | 5.0 | 11.0 | 0.02 | 0.02 | 0.02 | 85 | 1013.7 |
| 20260502113513 | 42 | 57 | 5.0 | 10.0 | 0.01 | 0.01 | 0.01 | 85 | 1013.8 |
| 20260502113029 | 42 | 84 | 4.0 | 10.0 | 0.01 | 0.01 | 0.01 | 85 | 1013.9 |
| 20260502112512 | 42 | 80 | 4.0 | 10.0 | 0.01 | 0.01 | 0.01 | 83 | 1014.0 |
| 20260502112015 | 42 | 59 | 6.0 | 10.0 | 0.01 | 0.01 | 0.01 | 82 | 1014.0 |
| 20260502111529 | 42 | 113 | 4.0 | 10.0 | 0.00 | 0.00 | 0.00 | 80 | 1014.0 |
| 20260502111011 | 43 | 51 | 3.0 | 9.0 | 0.00 | 0.00 | 0.00 | 80 | 1014.1 |
| 20260502110514 | 43 | 360 | 3.0 | 6.0 | 0.00 | 0.00 | 0.00 | 75 | 1014.1 |
| 20260502110037 | 43 | 0 | 0.0 | 6.0 | 0.00 | 0.00 | 0.00 | 76 | 1014.1 |
| 20260502105514 | 43 | 0 | 0.0 | 6.0 | 0.00 | 0.00 | 0.00 | 74 | 1014.1 |
| 20260502105011 | 43 | 0 | 0.0 | 5.0 | 0.00 | 0.00 | 0.00 | 75 | 1014.1 |
| 20260502104530 | 44 | 0 | 0.0 | 5.0 | 0.00 | 0.00 | 0.00 | 75 | 1013.9 |
| 20260502104013 | 43 | 360 | 2.0 | 9.0 | 0.00 | 0.00 | 0.00 | 72 | 1013.9 |
| 20260502103512 | 43 | 360 | 2.0 | 9.0 | 0.00 | 0.00 | 0.00 | 72 | 1013.9 |
| 20260502103035 | 43 | 360 | 5.0 | 11.0 | 0.00 | 0.00 | 0.00 | 70 | 1013.9 |
| 20260502102512 | 44 | 360 | 4.0 | 11.0 | 0.00 | 0.00 | 0.00 | 69 | 1013.9 |
| 20260502102013 | 44 | 360 | 3.0 | 12.0 | 0.00 | 0.00 | 0.00 | 68 | 1013.9 |
| 20260502101545 | 44 | 360 | 7.0 | 12.0 | 0.00 | 0.00 | 0.00 | 67 | 1013.8 |
| 20260502101011 | 44 | 360 | 6.0 | 11.0 | 0.00 | 0.00 | 0.00 | 67 | 1013.6 |
| 20260502100512 | 44 | 360 | 6.0 | 11.0 | 0.00 | 0.00 | 0.00 | 67 | 1013.6 |
| 20260502091533 | 45 | 360 | 4.0 | 12.0 | 0.00 | 0.00 | 0.00 | 62 | 1012.8 |
| 20260502091012 | 45 | 360 | 8.0 | 12.0 | 0.00 | 0.00 | 0.00 | 61 | 1012.7 |
| 20260502090512 | 45 | 360 | 6.0 | 11.0 | 0.00 | 0.00 | 0.00 | 59 | 1012.8 |
| 20260502071530 | 45 | 360 | 2.0 | 6.0 | 0.00 | 0.00 | 0.00 | 51 | 1014.3 |
| 20260502071016 | 45 | 360 | 2.0 | 6.0 | 0.00 | 0.00 | 0.00 | 51 | 1014.2 |
| 20260502070512 | 45 | 360 | 2.0 | 6.0 | 0.00 | 0.00 | 0.00 | 51 | 1014.1 |
| 20260502070050 | 45 | 360 | 3.0 | 9.0 | 0.00 | 0.00 | 0.00 | 50 | 1014.0 |
| 20260502065511 | 45 | 360 | 2.0 | 9.0 | 0.00 | 0.00 | 0.00 | 51 | 1013.9 |
| 20260502065011 | 45 | 360 | 4.0 | 9.0 | 0.00 | 0.00 | 0.00 | 51 | 1013.9 |
| 20260502064529 | 45 | 360 | 3.0 | 9.0 | 0.00 | 0.00 | 0.00 | 50 | 1013.8 |
| 20260502064013 | 45 | 360 | 5.0 | 9.0 | 0.00 | 0.00 | 0.00 | 50 | 1013.6 |
| 20260502063512 | 45 | 360 | 5.0 | 10.0 | 0.00 | 0.00 | 0.00 | 50 | 1013.5 |
| 20260502063037 | 45 | 360 | 5.0 | 10.0 | 0.00 | 0.00 | 0.00 | 50 | 1013.6 |
| 20260502062514 | 45 | 360 | 5.0 | 10.0 | 0.00 | 0.00 | 0.00 | 50 | 1013.4 |
| 20260502062013 | 45 | 360 | 6.0 | 10.0 | 0.00 | 0.00 | 0.00 | 49 | 1013.5 |
| 20260502061528 | 45 | 360 | 6.0 | 10.0 | 0.00 | 0.00 | 0.00 | 49 | 1013.4 |
| 20260502061011 | 45 | 360 | 5.0 | 11.0 | 0.00 | 0.00 | 0.00 | 49 | 1013.5 |
| 20260502060514 | 45 | 360 | 6.0 | 11.0 | 0.00 | 0.00 | 0.00 | 49 | 1013.3 |
| 20260502060030 | 46 | 360 | 6.0 | 12.0 | 0.00 | 0.00 | 0.00 | 49 | 1013.1 |
| 20260502055512 | 46 | 360 | 6.0 | 12.0 | 0.00 | 0.00 | 0.00 | 49 | 1013.2 |
| 20260502055013 | 46 | 360 | 7.0 | 12.0 | 0.00 | 0.00 | 0.00 | 49 | 1013.2 |
| 20260502054531 | 46 | 360 | 6.0 | 12.0 | 0.00 | 0.00 | 0.00 | 48 | 1013.2 |
| 20260502054014 | 46 | 360 | 7.0 | 12.0 | 0.00 | 0.00 | 0.00 | 47 | 1013.2 |
| 20260502053515 | 46 | 360 | 7.0 | 12.0 | 0.00 | 0.00 | 0.00 | 48 | 1013.2 |
| 20260502053031 | 46 | 360 | 6.0 | 11.0 | 0.00 | 0.00 | 0.00 | 47 | 1013.2 |
| 20260502052514 | 46 | 360 | 6.0 | 11.0 | 0.00 | 0.00 | 0.00 | 47 | 1013.3 |
| 20260502052018 | 46 | 360 | 6.0 | 11.0 | 0.00 | 0.00 | 0.00 | 47 | 1013.2 |
| 20260502051530 | 46 | 360 | 7.0 | 10.0 | 0.00 | 0.00 | 0.00 | 47 | 1013.2 |
| 20260502051011 | 46 | 360 | 5.0 | 10.0 | 0.00 | 0.00 | 0.00 | 49 | 1013.3 |
| 20260502050513 | 46 | 360 | 5.0 | 10.0 | 0.00 | 0.00 | 0.00 | 48 | 1013.2 |
| 20260502050033 | 46 | 360 | 5.0 | 12.0 | 0.00 | 0.00 | 0.00 | 48 | 1013.2 |
| 20260502045514 | 45 | 360 | 6.0 | 12.0 | 0.00 | 0.00 | 0.00 | 48 | 1013.1 |
| 20260502045013 | 45 | 360 | 5.0 | 10.0 | 0.00 | 0.00 | 0.00 | 51 | 1013.2 |
| 20260502044530 | 45 | 360 | 5.0 | 10.0 | 0.00 | 0.00 | 0.00 | 50 | 1013.2 |
| 20260502044013 | 45 | 360 | 5.0 | 10.0 | 0.00 | 0.00 | 0.00 | 50 | 1013.1 |
| 20260502043512 | 45 | 360 | 5.0 | 10.0 | 0.00 | 0.00 | 0.00 | 49 | 1013.2 |
| 20260502043031 | 45 | 360 | 5.0 | 10.0 | 0.00 | 0.00 | 0.00 | 48 | 1013.2 |
| 20260502042513 | 45 | 360 | 5.0 | 10.0 | 0.00 | 0.00 | 0.00 | 48 | 1013.2 |
| 20260502042012 | 46 | 360 | 4.0 | 8.0 | 0.00 | 0.00 | 0.00 | 48 | 1013.1 |
| 20260502041534 | 46 | 360 | 4.0 | 8.0 | 0.00 | 0.00 | 0.00 | 47 | 1013.1 |
| 20260502041011 | 46 | 360 | 4.0 | 9.0 | 0.00 | 0.00 | 0.00 | 48 | 1013.1 |
| 20260502040513 | 46 | 360 | 3.0 | 10.0 | 0.00 | 0.00 | 0.00 | 47 | 1013.0 |
| 20260502040030 | 46 | 360 | 4.0 | 10.0 | 0.00 | 0.00 | 0.00 | 47 | 1013.0 |
| 20260502035513 | 46 | 360 | 5.0 | 9.0 | 0.00 | 0.00 | 0.00 | 46 | 1012.9 |
| 20260502035012 | 46 | 360 | 5.0 | 9.0 | 0.00 | 0.00 | 0.00 | 46 | 1012.9 |
| 20260502034531 | 46 | 360 | 5.0 | 8.0 | 0.00 | 0.00 | 0.00 | 45 | 1012.9 |
| 20260502034014 | 46 | 360 | 4.0 | 8.0 | 0.00 | 0.00 | 0.00 | 45 | 1012.9 |
| 20260502033512 | 46 | 360 | 5.0 | 8.0 | 0.00 | 0.00 | 0.00 | 45 | 1012.9 |
| 20260502033028 | 46 | 360 | 4.0 | 9.0 | 0.00 | 0.00 | 0.00 | 45 | 1013.0 |
| 20260502032512 | 46 | 360 | 4.0 | 9.0 | 0.00 | 0.00 | 0.00 | 45 | 1013.0 |
| 20260502032011 | 46 | 360 | 5.0 | 9.0 | 0.00 | 0.00 | 0.00 | 46 | 1013.0 |
| 20260502031530 | 46 | 360 | 4.0 | 9.0 | 0.00 | 0.00 | 0.00 | 46 | 1013.0 |
| 20260502031014 | 46 | 360 | 5.0 | 8.0 | 0.00 | 0.00 | 0.00 | 45 | 1013.0 |
| 20260502030514 | 46 | 360 | 4.0 | 9.0 | 0.00 | 0.00 | 0.00 | 46 | 1013.0 |
| 20260502030030 | 47 | 360 | 5.0 | 9.0 | 0.00 | 0.00 | 0.00 | 46 | 1012.9 |
| 20260502025513 | 47 | 360 | 5.0 | 9.0 | 0.00 | 0.00 | 0.00 | 46 | 1012.8 |
| 20260502025011 | 47 | 360 | 4.0 | 9.0 | 0.00 | 0.00 | 0.00 | 45 | 1012.8 |
| 20260502024535 | 47 | 360 | 5.0 | 6.0 | 0.00 | 0.00 | 0.00 | 45 | 1012.9 |
| 20260502024012 | 47 | 360 | 4.0 | 8.0 | 0.00 | 0.00 | 0.00 | 45 | 1012.8 |
| 20260502023513 | 47 | 360 | 4.0 | 8.0 | 0.00 | 0.00 | 0.00 | 45 | 1012.9 |
| 20260502023031 | 47 | 360 | 4.0 | 8.0 | 0.00 | 0.00 | 0.00 | 45 | 1012.9 |
| 20260502022513 | 47 | 360 | 4.0 | 8.0 | 0.00 | 0.00 | 0.00 | 46 | 1012.9 |
| 20260502022013 | 47 | 360 | 4.0 | 8.0 | 0.00 | 0.00 | 0.00 | 48 | 1012.9 |
| 20260502021528 | 47 | 360 | 4.0 | 8.0 | 0.00 | 0.00 | 0.00 | 48 | 1013.0 |
| 20260502021013 | 47 | 360 | 4.0 | 8.0 | 0.00 | 0.00 | 0.00 | 46 | 1013.0 |
| 20260502020514 | 47 | 360 | 4.0 | 8.0 | 0.00 | 0.00 | 0.00 | 46 | 1013.0 |
| 20260502020037 | 47 | 360 | 4.0 | 8.0 | 0.00 | 0.00 | 0.00 | 46 | 1013.1 |
| 20260502015514 | 47 | 360 | 4.0 | 8.0 | 0.00 | 0.01 | 0.00 | 46 | 1013.1 |
| 20260502015014 | 47 | 360 | 4.0 | 8.0 | 0.00 | 0.01 | 0.00 | 47 | 1013.1 |
| 20260502014532 | 47 | 360 | 4.0 | 6.0 | 0.00 | 0.01 | 0.00 | 47 | 1013.1 |
| 20260502014018 | 47 | 360 | 4.0 | 8.0 | 0.00 | 0.01 | 0.00 | 47 | 1013.0 |
| 20260502013512 | 47 | 360 | 4.0 | 8.0 | 0.00 | 0.01 | 0.00 | 47 | 1012.9 |
| 20260502013047 | 47 | 360 | 3.0 | 6.0 | 0.00 | 0.01 | 0.00 | 48 | 1012.9 |
| 20260502012511 | 47 | 360 | 4.0 | 6.0 | 0.00 | 0.01 | 0.00 | 48 | 1013.0 |
| 20260502012011 | 47 | 360 | 3.0 | 8.0 | 0.00 | 0.01 | 0.00 | 50 | 1013.0 |
| 20260502011530 | 47 | 360 | 3.0 | 8.0 | 0.00 | 0.01 | 0.00 | 50 | 1012.9 |
| 20260502011013 | 47 | 360 | 3.0 | 6.0 | 0.00 | 0.01 | 0.00 | 50 | 1012.9 |
| 20260502010513 | 47 | 360 | 3.0 | 8.0 | 0.00 | 0.01 | 0.00 | 50 | 1012.8 |
| 20260502010031 | 48 | 360 | 3.0 | 8.0 | 0.00 | 0.01 | 0.00 | 48 | 1012.8 |
| 20260502005513 | 48 | 360 | 3.0 | 9.0 | 0.00 | 0.01 | 0.00 | 47 | 1012.7 |
| 20260502005014 | 48 | 360 | 3.0 | 9.0 | 0.00 | 0.01 | 0.00 | 47 | 1012.5 |
| 20260502004532 | 48 | 360 | 5.0 | 9.0 | 0.00 | 0.01 | 0.00 | 46 | 1012.5 |
| 20260502004014 | 48 | 360 | 5.0 | 9.0 | 0.00 | 0.01 | 0.00 | 46 | 1012.4 |
| 20260502003511 | 48 | 360 | 4.0 | 8.0 | 0.00 | 0.01 | 0.00 | 48 | 1012.3 |
| 20260502003031 | 48 | 360 | 3.0 | 9.0 | 0.00 | 0.01 | 0.00 | 45 | 1012.3 |
| 20260502002511 | 49 | 360 | 4.0 | 9.0 | 0.00 | 0.01 | 0.00 | 46 | 1012.2 |
| 20260502002013 | 49 | 9 | 4.0 | 9.0 | 0.00 | 0.01 | 0.00 | 45 | 1012.2 |
| 20260502001535 | 49 | 338 | 4.0 | 9.0 | 0.00 | 0.01 | 0.00 | 44 | 1012.2 |
| 20260502001013 | 50 | 336 | 3.0 | 9.0 | 0.00 | 0.01 | 0.00 | 43 | 1012.1 |
| 20260502000511 | 50 | 336 | 4.0 | 9.0 | 0.00 | 0.01 | 0.00 | 43 | 1012.0 |
| 20260502000031 | 50 | 336 | 3.0 | 6.0 | 0.00 | 0.01 | 0.00 | 43 | 1011.9 |
| 20260501235514 | 51 | 319 | 2.0 | 8.0 | 0.00 | 0.02 | 0.00 | 41 | 1011.8 |
| 20260501235011 | 51 | 360 | 3.0 | 9.0 | 0.00 | 0.02 | 0.00 | 41 | 1011.7 |
| 20260501234531 | 51 | 360 | 3.0 | 10.0 | 0.00 | 0.02 | 0.00 | 41 | 1011.6 |
| 20260501234011 | 52 | 360 | 3.0 | 12.0 | 0.00 | 0.02 | 0.00 | 40 | 1011.6 |
| 20260501233513 | 52 | 360 | 4.0 | 14.0 | 0.00 | 0.02 | 0.00 | 41 | 1011.6 |
| 20260501233035 | 52 | 303 | 7.0 | 14.0 | 0.00 | 0.02 | 0.00 | 39 | 1011.5 |
| 20260501232512 | 52 | 298 | 4.0 | 15.0 | 0.00 | 0.02 | 0.00 | 40 | 1011.5 |
| 20260501232013 | 53 | 308 | 7.0 | 15.0 | 0.00 | 0.02 | 0.00 | 38 | 1011.4 |
| 20260501231532 | 53 | 327 | 7.0 | 14.0 | 0.00 | 0.02 | 0.00 | 37 | 1011.3 |
| 20260501231012 | 53 | 336 | 6.0 | 17.0 | 0.00 | 0.02 | 0.00 | 37 | 1011.2 |
| 20260501230514 | 53 | 290 | 9.0 | 17.0 | 0.00 | 0.02 | 0.00 | 37 | 1011.1 |
| 20260501230037 | 54 | 322 | 8.0 | 17.0 | 0.00 | 0.02 | 0.00 | 37 | 1011.1 |
| 20260501225513 | 54 | 298 | 9.0 | 17.0 | 0.00 | 0.02 | 0.00 | 37 | 1011.1 |
| 20260501225014 | 54 | 307 | 10.0 | 17.0 | 0.00 | 0.02 | 0.00 | 37 | 1011.0 |
| 20260501224532 | 54 | 336 | 5.0 | 14.0 | 0.00 | 0.02 | 0.00 | 38 | 1011.0 |
| 20260501224013 | 55 | 318 | 7.0 | 17.0 | 0.00 | 0.02 | 0.00 | 37 | 1010.9 |
| 20260501223511 | 55 | 338 | 9.0 | 17.0 | 0.00 | 0.02 | 0.00 | 37 | 1010.9 |
| 20260501223031 | 55 | 296 | 9.0 | 19.0 | 0.00 | 0.02 | 0.00 | 36 | 1010.7 |
| 20260501222512 | 55 | 316 | 5.0 | 19.0 | 0.00 | 0.02 | 0.00 | 37 | 1010.8 |
| 20260501222012 | 55 | 310 | 12.0 | 19.0 | 0.00 | 0.02 | 0.00 | 35 | 1010.7 |
| 20260501221530 | 56 | 299 | 5.0 | 17.0 | 0.00 | 0.02 | 0.00 | 37 | 1010.6 |
| 20260501221014 | 56 | 355 | 9.0 | 19.0 | 0.00 | 0.02 | 0.00 | 36 | 1010.4 |
| 20260501220513 | 56 | 259 | 9.0 | 22.0 | 0.00 | 0.02 | 0.00 | 36 | 1010.4 |
| 20260501220058 | 56 | 321 | 10.0 | 23.0 | 0.00 | 0.02 | 0.00 | 36 | 1010.4 |
| 20260501215513 | 56 | 308 | 14.0 | 23.0 | 0.00 | 0.02 | 0.00 | 36 | 1010.3 |
| 20260501215013 | 56 | 295 | 9.0 | 18.0 | 0.00 | 0.02 | 0.00 | 35 | 1010.3 |
| 20260501214535 | 56 | 292 | 12.0 | 20.0 | 0.00 | 0.02 | 0.00 | 36 | 1010.2 |
| 20260501214013 | 57 | 280 | 11.0 | 20.0 | 0.00 | 0.02 | 0.00 | 35 | 1010.2 |
| 20260501213514 | 57 | 315 | 8.0 | 21.0 | 0.00 | 0.02 | 0.00 | 37 | 1010.1 |
| 20260501213030 | 57 | 269 | 11.0 | 27.0 | 0.00 | 0.02 | 0.00 | 36 | 1010.0 |
| 20260501212512 | 57 | 294 | 11.0 | 28.0 | 0.00 | 0.02 | 0.00 | 37 | 1009.9 |
| 20260501212012 | 57 | 293 | 11.0 | 28.0 | 0.00 | 0.02 | 0.00 | 36 | 1009.8 |
| 20260501211529 | 57 | 286 | 12.0 | 28.0 | 0.00 | 0.02 | 0.00 | 37 | 1009.6 |
| 20260501211011 | 57 | 296 | 9.0 | 24.0 | 0.00 | 0.02 | 0.00 | 37 | 1009.8 |
| 20260501210512 | 58 | 269 | 12.0 | 24.0 | 0.00 | 0.02 | 0.00 | 37 | 1009.7 |
| 20260501210039 | 57 | 277 | 8.0 | 18.0 | 0.00 | 0.02 | 0.00 | 38 | 1009.6 |
| 20260501205512 | 57 | 360 | 10.0 | 23.0 | 0.00 | 0.02 | 0.00 | 41 | 1009.7 |
| 20260501205012 | 57 | 341 | 10.0 | 23.0 | 0.00 | 0.02 | 0.00 | 39 | 1009.6 |
| 20260501204538 | 57 | 346 | 14.0 | 25.0 | 0.00 | 0.02 | 0.00 | 38 | 1009.6 |
| 20260501204013 | 57 | 313 | 8.0 | 25.0 | 0.00 | 0.02 | 0.00 | 39 | 1009.6 |
| 20260501203513 | 57 | 276 | 9.0 | 20.0 | 0.00 | 0.02 | 0.00 | 38 | 1009.5 |
| 20260501203034 | 57 | 323 | 10.0 | 20.0 | 0.00 | 0.02 | 0.00 | 38 | 1009.5 |
| 20260501202514 | 57 | 332 | 8.0 | 24.0 | 0.00 | 0.02 | 0.00 | 41 | 1009.6 |
| 20260501202012 | 57 | 294 | 14.0 | 28.0 | 0.00 | 0.02 | 0.00 | 38 | 1009.6 |
| 20260501201539 | 58 | 280 | 14.0 | 28.0 | 0.00 | 0.02 | 0.00 | 40 | 1009.7 |
| 20260501201012 | 58 | 281 | 14.0 | 23.0 | 0.00 | 0.02 | 0.00 | 40 | 1009.5 |
| 20260501200517 | 58 | 360 | 14.0 | 23.0 | 0.00 | 0.02 | 0.00 | 39 | 1009.6 |
| 20260501200031 | 58 | 336 | 13.0 | 24.0 | 0.00 | 0.02 | 0.00 | 40 | 1009.5 |
| 20260501195512 | 58 | 271 | 12.0 | 27.0 | 0.00 | 0.02 | 0.00 | 42 | 1009.4 |
| 20260501195013 | 58 | 296 | 15.0 | 28.0 | 0.00 | 0.02 | 0.00 | 40 | 1009.5 |
| 20260501194536 | 58 | 281 | 13.0 | 28.0 | 0.00 | 0.02 | 0.00 | 40 | 1009.4 |
| 20260501194012 | 59 | 234 | 11.0 | 25.0 | 0.00 | 0.02 | 0.00 | 43 | 1009.4 |
| 20260501193512 | 59 | 294 | 15.0 | 25.0 | 0.00 | 0.02 | 0.00 | 42 | 1009.4 |
| 20260501193038 | 58 | 225 | 13.0 | 25.0 | 0.00 | 0.02 | 0.00 | 43 | 1009.4 |
| 20260501192513 | 59 | 304 | 12.0 | 26.0 | 0.00 | 0.02 | 0.00 | 42 | 1009.3 |
| 20260501192011 | 58 | 240 | 11.0 | 28.0 | 0.00 | 0.02 | 0.00 | 43 | 1009.3 |
| 20260501191528 | 58 | 288 | 9.0 | 29.0 | 0.00 | 0.02 | 0.00 | 42 | 1009.3 |
| 20260501191013 | 58 | 276 | 15.0 | 29.0 | 0.00 | 0.02 | 0.00 | 44 | 1009.2 |
| 20260501190520 | 58 | 296 | 14.0 | 27.0 | 0.00 | 0.02 | 0.00 | 44 | 1009.2 |
| 20260501190036 | 57 | 287 | 10.0 | 24.0 | 0.00 | 0.02 | 0.00 | 46 | 1009.4 |
| 20260501185512 | 58 | 257 | 14.0 | 24.0 | 0.00 | 0.02 | 0.00 | 44 | 1009.4 |
| 20260501185014 | 58 | 267 | 13.0 | 25.0 | 0.00 | 0.02 | 0.00 | 44 | 1009.3 |
| 20260501184531 | 58 | 286 | 12.0 | 26.0 | 0.00 | 0.02 | 0.00 | 45 | 1009.3 |
| 20260501184011 | 58 | 247 | 14.0 | 27.0 | 0.00 | 0.02 | 0.00 | 45 | 1009.4 |
| 20260501183513 | 58 | 254 | 10.0 | 27.0 | 0.00 | 0.02 | 0.00 | 46 | 1009.1 |
| 20260501183032 | 58 | 294 | 13.0 | 23.0 | 0.00 | 0.02 | 0.00 | 48 | 1009.1 |
| 20260501182513 | 57 | 261 | 11.0 | 23.0 | 0.00 | 0.02 | 0.00 | 47 | 1009.2 |
| 20260501182012 | 57 | 290 | 10.0 | 24.0 | 0.00 | 0.02 | 0.00 | 47 | 1009.2 |
| 20260501181553 | 57 | 293 | 11.0 | 28.0 | 0.00 | 0.02 | 0.00 | 49 | 1009.2 |
| 20260501181012 | 57 | 284 | 15.0 | 28.0 | 0.00 | 0.02 | 0.00 | 48 | 1009.2 |
| 20260501180515 | 57 | 246 | 13.0 | 24.0 | 0.00 | 0.02 | 0.00 | 50 | 1009.3 |
| 20260501180031 | 56 | 267 | 10.0 | 26.0 | 0.00 | 0.02 | 0.00 | 50 | 1009.2 |
| 20260501175514 | 56 | 272 | 12.0 | 28.0 | 0.00 | 0.10 | 0.00 | 50 | 1009.2 |
| 20260501175013 | 56 | 290 | 17.0 | 28.0 | 0.00 | 0.10 | 0.00 | 49 | 1009.4 |
| 20260501174530 | 56 | 294 | 13.0 | 26.0 | 0.00 | 0.10 | 0.00 | 48 | 1009.2 |
| 20260501174014 | 56 | 287 | 11.0 | 27.0 | 0.00 | 0.10 | 0.00 | 50 | 1009.2 |
| 20260501173511 | 55 | 276 | 14.0 | 27.0 | 0.00 | 0.10 | 0.00 | 51 | 1009.4 |
| 20260501173029 | 55 | 298 | 13.0 | 27.0 | 0.00 | 0.10 | 0.00 | 52 | 1009.3 |
| 20260501172513 | 55 | 284 | 13.0 | 27.0 | 0.00 | 0.10 | 0.00 | 51 | 1009.3 |
| 20260501172012 | 55 | 317 | 14.0 | 23.0 | 0.00 | 0.10 | 0.00 | 52 | 1009.3 |
| 20260501171533 | 55 | 246 | 12.0 | 23.0 | 0.00 | 0.10 | 0.00 | 52 | 1009.3 |
| 20260501171010 | 55 | 250 | 11.0 | 23.0 | 0.00 | 0.10 | 0.00 | 54 | 1009.4 |
| 20260501170512 | 54 | 292 | 10.0 | 21.0 | 0.00 | 0.10 | 0.00 | 54 | 1009.4 |
| 20260501170031 | 55 | 267 | 13.0 | 21.0 | 0.00 | 0.10 | 0.00 | 52 | 1009.5 |
| 20260501165515 | 55 | 236 | 7.0 | 22.0 | 0.00 | 0.18 | 0.00 | 58 | 1009.4 |
| 20260501165012 | 55 | 346 | 11.0 | 22.0 | 0.00 | 0.18 | 0.00 | 54 | 1009.6 |
| 20260501164541 | 54 | 294 | 9.0 | 21.0 | 0.00 | 0.18 | 0.00 | 58 | 1009.5 |
| 20260501164012 | 54 | 317 | 11.0 | 22.0 | 0.00 | 0.18 | 0.00 | 56 | 1009.5 |
| 20260501163513 | 54 | 281 | 9.0 | 23.0 | 0.00 | 0.18 | 0.00 | 57 | 1009.5 |
| 20260501163039 | 53 | 274 | 11.0 | 23.0 | 0.00 | 0.18 | 0.00 | 57 | 1009.6 |
| 20260501162513 | 54 | 264 | 13.0 | 22.0 | 0.00 | 0.18 | 0.00 | 57 | 1009.6 |
| 20260501162017 | 53 | 284 | 10.0 | 23.0 | 0.00 | 0.18 | 0.00 | 60 | 1009.8 |
| 20260501161532 | 53 | 294 | 11.0 | 24.0 | 0.00 | 0.18 | 0.00 | 62 | 1009.8 |
| 20260501161016 | 53 | 285 | 12.0 | 24.0 | 0.00 | 0.18 | 0.00 | 59 | 1009.8 |
| 20260501160513 | 53 | 325 | 11.0 | 23.0 | 0.00 | 0.18 | 0.00 | 61 | 1009.8 |
| 20260501160050 | 52 | 302 | 12.0 | 21.0 | 0.00 | 0.18 | 0.00 | 62 | 1009.9 |
| 20260501155514 | 53 | 301 | 7.0 | 18.0 | 0.00 | 0.19 | 0.00 | 61 | 1009.9 |
| 20260501155015 | 52 | 302 | 7.0 | 18.0 | 0.00 | 0.19 | 0.00 | 63 | 1010.0 |
| 20260501154532 | 52 | 234 | 10.0 | 18.0 | 0.00 | 0.19 | 0.00 | 61 | 1009.9 |
| 20260501154012 | 52 | 287 | 11.0 | 18.0 | 0.00 | 0.19 | 0.00 | 60 | 1009.9 |
| 20260501153511 | 51 | 295 | 7.0 | 17.0 | 0.00 | 0.19 | 0.00 | 60 | 1010.0 |
| 20260501153034 | 51 | 288 | 7.0 | 17.0 | 0.00 | 0.19 | 0.00 | 60 | 1009.9 |
| 20260501152512 | 52 | 300 | 9.0 | 18.0 | 0.00 | 0.19 | 0.00 | 59 | 1009.9 |
| 20260501152011 | 51 | 277 | 7.0 | 18.0 | 0.00 | 0.19 | 0.00 | 60 | 1009.9 |
| 20260501151530 | 51 | 281 | 9.0 | 17.0 | 0.00 | 0.19 | 0.00 | 61 | 1009.9 |
| 20260501151011 | 51 | 293 | 4.0 | 16.0 | 0.00 | 0.19 | 0.00 | 62 | 1009.9 |
| 20260501150515 | 51 | 315 | 7.0 | 18.0 | 0.00 | 0.19 | 0.00 | 62 | 1009.9 |
| 20260501150044 | 51 | 319 | 7.0 | 18.0 | 0.00 | 0.19 | 0.00 | 62 | 1009.9 |
| 20260501145512 | 52 | 277 | 9.0 | 18.0 | 0.00 | 0.19 | 0.00 | 63 | 1009.7 |